Flag for Canada Weather past 2 weeks in Bathurst, New Brunswick, Canada

Now
34 °F

Light rain. Low clouds.


Feels Like: 27 °F
Forecast: 33 / 36 °F
Wind: 8 mph from Northeast

Location: Bathurst Airport


UV Index: 0 (Low)

Visibility: 8 mi


Pressure: 29.51 "Hg

Humidity: 100%

Dew point: 34 °F

Location of BathurstLocation

Historic Weather in Bathurst

°F

Bathurst temperature yesterday

Maximum temperature yesterday: 36 °F (at 4:00 PM)
Minimum temperature yesterday: 34 °F (at 12:00 AM)
Average temperature yesterday: 34 °F

Past Weeks' High & Low Weather Summary

 TemperatureHumidityPressure
High59 °F (Apr 21, 7:00 PM)100% (Apr 9, 2:00 AM)30.81 "Hg (Apr 9, 2:00 AM)
Low19 °F (Apr 17, 2:00 AM)16% (Apr 20, 6:00 PM)29.14 "Hg (Apr 9, 4:00 AM)
Average37 °F65%29.99 "Hg
* Reported Apr 9 2:00 AM — Apr 24 2:00 AM, Bathurst, Weather by CustomWeather, © 2014

Note: Actual official high and low records may vary slightly from our data, if they occured in-between our weather recording intervals... More about our weather records

Advertising

Historic Weather Conditions — Data for Previous 24 hours

 ConditionsComfort  
Time TempWeatherWind HumidityBarometerVisibility
2:00 AM
Apr 24
34 °FLight rain. Low clouds.8 mph100%29.51 "Hg8 mi
1:00 AM34 °FRain. Low clouds.10 mph100%29.51 "Hg10 mi
12:00 AM34 °FRain. Low clouds.9 mph93%29.52 "Hg10 mi
11:00 PM
Apr 23
34 °FLight rain. Fog.9 mph93%29.52 "Hg6 mi
10:00 PM34 °FDrizzle. Fog.7 mph93%29.52 "Hg2 mi
9:00 PM34 °FDrizzle. Fog.6 mph100%29.51 "Hg1 mi
8:00 PM34 °FDrizzle. Fog.6 mph100%29.50 "Hg1 mi
7:00 PM34 °FDrizzle. Fog.7 mph100%29.49 "Hg1 mi
6:00 PM36 °FLight rain. Fog.6 mph93%29.49 "Hg1 mi
5:00 PM36 °FLight rain. Fog.5 mph93%29.49 "Hg1 mi
4:00 PM36 °FLight rain. Fog.7 mph100%29.50 "Hg1 mi
3:00 PM34 °FLight rain. Fog.6 mph100%29.50 "Hg3 mi
2:00 PM34 °FRain. Fog.5 mph100%29.51 "Hg4 mi
1:00 PM34 °FLight rain. Fog.5 mph93%29.53 "Hg3 mi
12:00 PM34 °FLight rain. Fog.6 mph100%29.55 "Hg1 mi
11:00 AM34 °FLight rain. Fog.7 mph93%29.55 "Hg2 mi
10:00 AM34 °FLight rain. Fog.2 mph93%29.56 "Hg2 mi
9:00 AM34 °FLight rain. Fog.8 mph93%29.56 "Hg3 mi
8:00 AM34 °FLight rain. Fog.6 mph93%29.59 "Hg4 mi
7:55 AM34 °FLight rain. Fog.7 mph93%29.58 "Hg4 mi
7:00 AM34 °FLight rain. Fog.6 mph93%29.59 "Hg2 mi
6:00 AM34 °FLight rain. Fog.6 mph93%29.58 "Hg6 mi
5:00 AM34 °FLight rain. Fog.3 mph93%29.60 "Hg5 mi
4:00 AM34 °FFog.6 mph93%29.62 "Hg6 mi
3:00 AM34 °FFog.5 mph93%29.64 "Hg6 mi
Weather by CustomWeather, © 2014

See weather overview